This is the latest recevied weather packets stored in our database for station/object N0NPO. If no packets are shown the sender has not sent any weather packets the latest 10 day(s).
| Time | Temp. | Humidity | Pressure | Rain* | Wind** | Luminosity | Snow |
|---|---|---|---|---|---|---|---|
| 1777749887 | 20.56° C | 1% | 1016.3 hPa | 0 mm | - | 579 W/m² | - |
| 1777749584 | 20.56° C | 1% | 1016 hPa | 0 mm | - | 620 W/m² | - |
| 1777749281 | 21.11° C | 1% | 1016.5 hPa | 0 mm | - | 684 W/m² | - |
| 1777748979 | 20.56° C | 1% | 1016.5 hPa | 0 mm | - | 696 W/m² | - |
| 1777748676 | 20.56° C | 1% | 1016.7 hPa | 0 mm | - | 741 W/m² | - |
| 1777748372 | 20° C | 1% | 1016.7 hPa | 0 mm | - | 681 W/m² | - |
| 1777748067 | 20° C | 1% | 1016.8 hPa | 0 mm | - | 652 W/m² | - |
| 1777747765 | 20° C | 1% | 1017 hPa | 0 mm | - | 718 W/m² | - |
| 1777747460 | 20° C | 1% | 1017.2 hPa | 0 mm | - | 688 W/m² | - |
| 1777747157 | 19.44° C | 1% | 1017.2 hPa | 0 mm | - | 499 W/m² | - |
| 1777746853 | 19.44° C | 1% | 1017.4 hPa | 0 mm | - | 498 W/m² | - |
| 1777746549 | 19.44° C | 1% | 1017.3 hPa | 0 mm | - | 734 W/m² | - |
| 1777746244 | 18.89° C | 1% | 1017.5 hPa | 0 mm | - | 723 W/m² | - |
| 1777745941 | 18.89° C | 1% | 1017.5 hPa | 0 mm | - | 703 W/m² | - |
| 1777745639 | 18.89° C | 1% | 1017.7 hPa | 0 mm | - | 732 W/m² | - |
| 1777745337 | 18.89° C | 1% | 1017.8 hPa | 0 mm | - | 612 W/m² | - |
| 1777745034 | 18.89° C | 1% | 1017.7 hPa | 0 mm | - | 697 W/m² | - |
| 1777744730 | 18.89° C | 1% | 1018.3 hPa | 0 mm | - | 708 W/m² | - |
| 1777744424 | 18.33° C | 1% | 1018.2 hPa | 0 mm | - | 716 W/m² | - |
| 1777744122 | 18.89° C | 1% | 1018.2 hPa | 0 mm | - | 703 W/m² | - |
| 1777743818 | 17.78° C | 1% | 1018.3 hPa | 0 mm | - | 713 W/m² | - |
| 1777743515 | 17.78° C | 1% | 1018.3 hPa | 0 mm | - | 702 W/m² | - |
| 1777743212 | 17.22° C | 1% | 1018.4 hPa | 0 mm | - | 725 W/m² | - |
| 1777742910 | 17.22° C | 1% | 1018.7 hPa | 0 mm | - | 643 W/m² | - |
| 1777742607 | 17.22° C | 1% | 1018.9 hPa | 0 mm | - | 710 W/m² | - |
* Rain latest hour (hover to see other rain measurements)
** Current wind speed in m/s (hover to see current wind gust speed)